Content
SEND FEEDBACK

Daily
Averages
Monthly
Summary
French Polynesia

PAPEETE, FRENCH POLYNESIA


Home > Oceania > French Polynesia
Elevation: 7 feet     Latitude: 17 33S     Longitude: 149 36W

WEATHER
 
SELECT A DAY
Number of Records: 217,333;   Date Range: 6/30/96 - 12/17/14
 
SHARE

PRINT THIS DATA

[ ← Previous Day ]
WEATHER ALMANAC - DECEMBER 31, 2012
[ Next Day → ]
[ °C ]   °F
Weather ElementAverageHighLow
Temperature81.2 °F86 °F (2:09 pm)77 °F (1:30 am)
Dewpoint73.1 °F75.2 °F (8:00 am)71 °F (2:00 am)
Humidity75.7 %84 % (7:00 pm)59 % (2:00 pm)
Barometer29.89 in29.94 in (8:00 am)29.83 in (3:00 pm)
Wind Speed3.4 mph10.4 mph (12:30 pm)
Weather ElementAverage
Visibility7.9 mi
Wind DirectionENE (77.5 °)

Weather ElementTotal
Precipitation---
Cooling Degree Days16.5 (Base 65)
Growing Degree Days31.5 (Base 50)
Averaged from 52 records on December 31, 2012
WEATHER CONDITIONS BREAKOUT
WIND DIRECTION BREAKOUT
WEATHER BY HOUR - DECEMBER 31, 2012
[ °C ]   °F
Local TimeTemperatureDewpointHumidityBarometerVisibilityWind DirectionWind SpeedGust SpeedPrecipitationEventsConditions
12:30 AM78.8 °F71.6 °F78 %29.89 in6.2 miEast (100°)2.3 mphPartly Cloudy
1:00 AM78.8 °F71.6 °F78 %29.89 in6.2 miEast (80°)3.5 mphPartly Cloudy
1:30 AM77.0 °F71.6 °F83 %29.89 in6.2 miEast (90°)4.6 mphPartly Cloudy
2:00 AM78.0 °F71.0 °F74 %29.88 in16.0 miESE (110°)4.5 mphScattered Clouds
2:00 AM78.8 °F71.6 °F78 %29.86 in6.2 miESE (110°)2.3 mphPartly Cloudy
2:30 AM78.8 °F71.6 °F78 %29.86 in6.2 miCalmPartly Cloudy
3:00 AM78.8 °F71.6 °F78 %29.86 in6.2 miCalmPartly Cloudy
3:30 AM77.0 °F71.6 °F83 %29.86 in6.2 miESE (110°)2.3 mph
4:00 AM77.0 °F71.6 °F83 %29.86 in6.2 miESE (110°)2.3 mph
4:30 AM77.0 °F71.6 °F83 %29.86 in6.2 miCalm
5:00 AM77.0 °F72.0 °F79 %29.89 in31.0 miSE (130°)2.3 mphClear
5:00 AM77.0 °F71.6 °F83 %29.89 in6.2 miVariable2.3 mph
5:30 AM77.0 °F71.6 °F83 %29.89 in6.2 miCalm
6:00 AM77.0 °F71.6 °F83 %29.89 in6.2 miCalmPartly Cloudy
6:30 AM78.8 °F73.4 °F83 %29.92 in6.2 miEast (100°)3.5 mphPartly Cloudy
7:00 AM82.4 °F73.4 °F74 %29.92 in6.2 miCalmPartly Cloudy
7:30 AM84.2 °F73.4 °F70 %29.92 in6.2 miWSW (240°)3.5 mphPartly Cloudy
8:00 AM84.0 °F74.0 °F66 %29.94 in16.0 miWSW (240°)3.5 mphPartly Cloudy
8:00 AM84.2 °F75.2 °F74 %29.92 in6.2 miWSW (240°)3.5 mphPartly Cloudy
8:30 AM84.2 °F75.2 °F74 %29.92 in6.2 miWest (260°)3.5 mphPartly Cloudy
9:00 AM84.2 °F75.2 °F74 %29.92 in6.2 miVariable3.5 mphPartly Cloudy
9:30 AM84.2 °F73.4 °F70 %29.92 in6.2 miVariable2.3 mphPartly Cloudy
10:00 AM84.2 °F73.4 °F70 %29.92 in6.2 miVariable1.2 mphPartly Cloudy
10:30 AM84.2 °F75.2 °F74 %29.92 in6.2 miVariable2.3 mphPartly Cloudy
11:00 AM84.0 °F74.0 °F66 %29.92 in16.0 miWSW (250°)2.3 mphMostly Cloudy
11:00 AM84.2 °F73.4 °F70 %29.92 in6.2 miVariable2.3 mphMostly Cloudy
11:30 AM82.4 °F75.2 °F79 %29.89 in6.2 miNE (50°)4.6 mphMostly Cloudy
12:00 PM82.4 °F75.2 °F79 %29.89 in6.2 miEast (80°)6.9 mphMostly Cloudy
12:30 PM82.4 °F73.4 °F74 %29.89 in6.2 miENE (70°)10.4 mphMostly Cloudy
1:00 PM82.4 °F73.4 °F74 %29.89 in6.2 miENE (70°)8.1 mphMostly Cloudy
2:00 PM85.0 °F73.0 °F59 %29.87 in9.0 miNorth3.5 mphMostly Cloudy
2:09 PM86.0 °F71.6 °F62 %29.86 in6.2 miNorth (10°)3.5 mphMostly Cloudy
2:30 PM86.0 °F73.4 °F66 %29.86 in6.2 miWNW (300°)3.5 mphMostly Cloudy
3:00 PM86.0 °F75.2 °F70 %29.83 in6.2 miVariable2.3 mphMostly Cloudy
3:30 PM84.2 °F73.4 °F70 %29.83 in6.2 miVariable3.5 mphMostly Cloudy
4:00 PM82.4 °F73.4 °F74 %29.83 in6.2 miEast (80°)3.5 mphMostly Cloudy
4:30 PM82.4 °F73.4 °F74 %29.83 in6.2 miVariable3.5 mphMostly Cloudy
5:00 PM83.0 °F74.0 °F67 %29.86 in12.0 miEast (80°)2.3 mphRainLight Rain Showers
5:00 PM82.4 °F73.4 °F74 %29.83 in6.2 miVariable2.3 mphMostly Cloudy
5:30 PM82.4 °F73.4 °F74 %29.86 in6.2 miNNE (30°)4.6 mphScattered Clouds
6:00 PM82.4 °F73.4 °F74 %29.86 in6.2 miNNE (30°)6.9 mphPartly Cloudy
6:30 PM82.4 °F73.4 °F74 %29.86 in6.2 miNE (50°)8.1 mphScattered Clouds
7:00 PM80.6 °F75.2 °F84 %29.89 in6.2 miNE (50°)5.8 mphPartly Cloudy
7:30 PM80.6 °F73.4 °F79 %29.89 in6.2 miVariable2.3 mphPartly Cloudy
8:00 PM80.0 °F74.0 °F77 %29.91 in12.0 miESE (110°)1.2 mphPartly Cloudy
8:00 PM80.6 °F73.4 °F79 %29.89 in6.2 miVariable1.2 mphPartly Cloudy
8:30 PM78.8 °F73.4 °F83 %29.89 in6.2 miSouth (180°)4.6 mphPartly Cloudy
9:00 PM78.8 °F73.4 °F83 %29.89 in6.2 miSouth (180°)6.9 mphPartly Cloudy
9:30 PM78.8 °F73.4 °F83 %29.92 in6.2 miSouth (170°)6.9 mphPartly Cloudy
10:00 PM78.8 °F73.4 °F83 %29.92 in6.2 miSouth (180°)5.8 mphPartly Cloudy
10:34 PM78.8 °F71.6 °F78 %29.92 in6.2 miVariable3.5 mphPartly Cloudy
11:00 PM79.0 °F72.0 °F75 %29.91 in28.0 miSE (140°)4.5 mphClear
Hourly data recorded from NTAA, located miles away from Papeete, French Polynesia







STORIES FROM OUR PARTNERS